Daleville, AL

10:45 PM CST on February 13, 2016 (GMT -0600)
Cairns Army Air Field

Weather History for KOZR - November, 2014

Change the Weather History Date:

Wednesday, November 19, 2014

  Actual Average Record
Temperature  
Mean Temperature 37 °F -  
Max Temperature 53 °F 65 °F 82 °F (1998)
Min Temperature 21 °F 44 °F 21 °F (2014)
Degree Days  
Heating Degree Days 28    
Moisture  
Dew Point 18 °F    
Average Humidity 53    
Maximum Humidity 86    
Minimum Humidity 20    
Precipitation  
Precipitation 0.00 in - - ()
Sea Level Pressure  
Sea Level Pressure 30.40 in    
Wind  
Wind Speed 3 mph (SSW)    
Max Wind Speed 7 mph    
Max Gust Speed -    
Visibility 10 miles    
Events      
Averages and records for this station are not official NWS values.
T = Trace of Precipitation, MM = Missing Value Source: NWS Daily Summary

Daily Weather History Graph

Daily Weather History Graph

Search for Another Location

Airport or City:

Trip Planner

Search our weather history database for the weather conditions in past years. The results will help you decide how hot, cold, wet, or windy it might be!

Date:

Astronomy

Nov. 19, 2014 Rise Set
Actual Time 6:13 AM CST 4:42 PM CST
Civil Twilight 5:47 AM CST 5:08 PM CST
Nautical Twilight 5:18 AM CST 5:37 PM CST
Astronomical Twilight 4:49 AM CST 6:06 PM CST
Moon 3:20 AM CST (11/19) 3:00 PM CST (11/19)
Length of Visible Light 11h 20m
Length of Day
10h 28m
Waning Crescent, 8% of the Moon is Illuminated
Nov 19
Waning Crescent
Nov 22
New
Nov 29
First Quarter
Dec 6
Full
Dec 14
Last Quarter

Hourly Weather History & Observations

Time (CST) Temp. Windchill Dew Point Humidity Pressure Visibility Wind Dir Wind Speed Gust Speed Precip Events Conditions
12:58 AM 26.8 °F 19.3 °F 15.8 °F 63% 30.44 in 10.0 mi NW 6.9 mph - N/A   Clear
1:58 AM 26.1 °F 20.5 °F 15.6 °F 65% 30.43 in 10.0 mi NNW 4.6 mph - N/A   Clear
2:58 AM 23.4 °F - 16.7 °F 76% 30.44 in 10.0 mi WNW 2.3 mph - N/A   Clear
3:58 AM 23.9 °F 19.5 °F 16.9 °F 75% 30.44 in 10.0 mi North 3.5 mph - N/A   Clear
4:58 AM 21.7 °F - 17.6 °F 84% 30.46 in 10.0 mi Calm Calm - N/A   Clear
5:58 AM 21.6 °F - 16.9 °F 82% 30.46 in 10.0 mi NNE 2.3 mph - N/A   Clear
6:58 AM 23.4 °F - 19.2 °F 84% 30.48 in 10.0 mi Calm Calm - N/A   Clear
7:58 AM 29.8 °F - 18.5 °F 63% 30.49 in 10.0 mi NE 1.2 mph - N/A   Clear
8:58 AM 36.5 °F 31.8 °F 15.8 °F 43% 30.50 in 10.0 mi NE 5.8 mph - N/A   Clear
9:58 AM 41.7 °F 38.8 °F 15.4 °F 35% 30.49 in 10.0 mi Variable 4.6 mph - N/A   Clear
10:58 AM 44.8 °F - 14.9 °F 30% 30.46 in 10.0 mi Variable 2.3 mph - N/A   Clear
11:58 AM 48.6 °F - 10.4 °F 21% 30.42 in 10.0 mi Variable 1.2 mph - N/A   Clear
12:58 PM 51.1 °F - 11.3 °F 20% 30.37 in 10.0 mi Variable 2.3 mph - N/A   Clear
1:58 PM 52.7 °F - 12.6 °F 20% 30.35 in 10.0 mi Variable 3.5 mph - N/A   Clear
2:58 PM 53.4 °F - 13.6 °F 21% 30.34 in 10.0 mi SSW 4.6 mph - N/A   Clear
3:58 PM 52.2 °F - 15.3 °F 23% 30.32 in 10.0 mi South 4.6 mph - N/A   Clear
4:58 PM 48.0 °F - 16.7 °F 29% 30.32 in 10.0 mi South 3.5 mph - N/A   Clear
5:58 PM 41.9 °F 40.0 °F 23.4 °F 48% 30.33 in 10.0 mi South 3.5 mph - N/A   Clear
6:58 PM 39.4 °F - 21.6 °F 49% 30.35 in 10.0 mi South 2.3 mph - N/A   Clear
7:58 PM 38.3 °F - 23.7 °F 56% 30.36 in 10.0 mi SSE 2.3 mph - N/A   Clear
8:58 PM 35.4 °F - 24.8 °F 65% 30.36 in 10.0 mi South 2.3 mph - N/A   Clear
9:58 PM 35.4 °F - 24.1 °F 63% 30.37 in 10.0 mi Calm Calm - N/A   Clear
10:58 PM 32.5 °F - 24.1 °F 71% 30.36 in 10.0 mi West 2.3 mph - N/A   Clear
11:58 PM 30.4 °F - 26.8 °F 86% 30.35 in 10.0 mi Calm Calm - N/A   Clear